Helicity
26 25 -17 5 -16 -10 78 12 70 -42 6 -29 39 80 101 144 105 78 18 6 146 151 107 105 107 104 85 62 49 51 46 40 29 28 36 29 25 44 44 47 43 43 40 35 28 26 21 25 30
29 14 18 10 -10 16 -10 -13 -7 64 75 67 113 91 111 88 68 71 90 20 144 168 150 140 122 120 106 72 51 48 48 39 41 30 33 32 26 32 38 37 38 36 36 38 33 25 23 18 30
6 -0 13 26 19 26 -8 -15 -13 37 49 91 163 185 153 130 40 65 78 90 162 181 162 153 146 129 120 88 62 51 55 39 40 40 35 34 24 29 36 36 33 31 31 29 33 28 16 14 15
16 30 34 30 27 35 38 144 101 38 120 155 203 208 158 43 39 35 135 169 190 176 186 176 162 134 122 94 78 68 57 46 43 43 44 42 28 35 38 39 37 35 26 27 27 29 25 10 6
54 45 52 20 26 41 32 127 44 60 77 109 105 109 160 135 158 213 215 184 238 228 212 195 173 137 123 110 96 85 81 59 50 49 47 48 38 43 44 44 42 38 30 29 32 30 25 21 8
67 56 54 24 -10 82 71 65 10 96 108 136 214 268 165 149 293 250 255 212 208 232 193 195 149 134 128 115 106 102 93 78 67 65 61 56 49 52 54 54 49 51 47 36 39 26 20 21 18
68 71 36 20 43 77 108 134 157 117 118 158 247 299 197 171 302 278 279 270 215 191 204 210 168 150 135 120 106 106 96 96 84 83 75 69 67 67 67 71 64 57 58 53 42 41 20 13 20
80 77 51 42 71 83 92 116 97 154 136 68 99 190 215 162 302 303 288 281 224 182 213 220 201 165 149 125 118 118 111 109 98 104 98 89 90 83 84 84 81 75 66 58 48 46 36 26 26
99 96 67 63 108 92 62 81 94 116 114 73 67 80 109 256 323 334 292 297 254 180 183 201 194 163 151 145 123 126 125 122 118 116 106 113 112 110 129 95 78 80 76 75 61 50 49 47 37
138 104 48 55 101 30 3 75 90 95 157 144 120 146 164 252 279 305 280 269 253 221 170 169 175 164 166 146 140 133 135 132 127 126 127 143 150 158 156 148 141 137 121 108 90 68 77 69 64
150 98 79 29 64 47 -30 -2 57 91 109 136 98 141 243 254 198 213 234 257 291 188 176 169 164 151 151 152 146 149 142 148 130 131 135 148 158 176 173 171 170 168 145 126 109 104 103 100 96
135 76 76 52 44 39 33 9 31 95 70 102 86 86 187 196 249 251 256 297 320 238 189 169 154 147 133 163 154 149 160 161 143 130 138 144 146 166 167 179 178 174 177 188 176 163 137 121 137
109 97 93 78 53 20 42 60 54 32 65 55 32 99 152 175 186 214 247 283 242 222 207 199 174 142 147 168 164 168 166 147 145 149 139 133 135 138 137 154 163 168 167 167 173 159 166 161 175
108 79 22 -3 20 30 47 79 100 69 55 73 66 90 112 167 177 251 275 272 232 197 229 232 192 170 171 179 172 161 168 171 169 160 158 156 149 130 117 136 154 170 165 176 178 160 148 151 152
111 94 75 45 67 84 82 152 97 73 86 58 26 108 160 122 221 213 271 325 239 221 288 250 240 248 223 228 228 240 249 231 204 181 180 180 172 149 132 130 171 179 176 177 163 170 167 168 154
149 144 169 114 95 88 206 190 180 153 132 26 32 66 181 210 258 167 241 335 245 323 325 344 292 314 313 275 261 256 235 204 185 177 172 189 193 193 204 191 201 178 168 163 176 145 177 183 181
182 181 171 144 87 148 196 227 164 88 32 16 37 39 125 226 259 203 225 338 409 408 484 511 349 328 347 330 297 261 220 196 181 177 175 179 180 203 212 194 214 199 183 178 166 164 157 157 162
144 163 141 170 134 196 183 140 114 21 80 84 48 40 51 106 248 261 268 401 479 539 567 564 447 382 364 403 409 342 266 228 203 188 175 174 182 188 190 187 199 185 184 178 172 157 174 140 128
164 141 126 129 178 140 97 53 57 19 11 55 39 -10 17 55 140 251 383 482 538 603 639 549 561 482 494 453 483 436 318 248 221 195 180 186 195 179 164 175 185 187 169 149 148 170 150 154 118
115 138 140 142 122 125 95 45 2 36 -1 22 37 37 67 91 80 222 440 506 564 651 636 586 521 477 411 367 341 326 345 294 282 255 239 199 206 206 173 179 176 169 169 156 148 164 161 151 136
116 137 156 143 109 85 86 80 71 55 74 130 184 152 235 53 115 154 369 519 637 678 665 622 557 436 379 312 313 290 337 349 333 299 224 199 218 238 211 188 175 167 161 162 152 158 151 162 206
143 116 106 103 102 111 84 81 155 52 146 170 169 175 177 238 193 124 349 530 649 747 650 576 511 389 251 239 229 238 268 334 297 229 213 214 228 257 246 213 194 195 189 191 175 172 155 184 216
127 110 100 72 93 122 132 124 84 52 143 252 300 222 230 210 211 238 358 473 588 678 592 497 333 245 168 152 187 204 254 298 269 281 259 222 203 227 233 234 226 220 224 219 216 218 225 212 185
137 140 110 74 82 150 118 152 84 95 183 317 264 279 259 267 189 178 172 259 296 306 278 243 190 90 124 167 160 189 248 309 287 266 243 213 183 198 229 212 223 218 242 258 247 240 243 246 244
150 177 155 173 162 181 270 239 150 159 180 211 207 150 114 120 154 133 131 43 53 98 119 110 110 101 114 141 140 193 262 323 270 266 272 258 211 184 207 242 236 226 213 226 242 269 262 247 254
175 211 243 171 204 177 165 184 236 254 262 211 139 105 92 141 76 53 65 16 46 51 64 89 83 91 121 123 132 162 220 263 273 276 295 282 242 205 204 225 234 226 222 236 251 269 266 256 254
243 291 234 271 264 249 217 278 249 217 263 250 275 218 152 91 75 65 -0 -35 -91 -29 -0 19 64 112 106 127 150 141 186 240 250 251 285 296 277 247 222 219 210 213 229 232 241 260 279 278 265
208 239 381 404 345 304 309 259 245 297 317 368 354 325 223 125 72 39 38 41 48 29 -17 42 45 90 124 111 130 150 163 207 233 279 291 296 294 313 282 239 219 228 226 227 256 283 267 259 235
376 391 385 379 432 388 385 385 181 327 366 284 233 289 203 77 -8 2 34 89 78 64 13 -48 -4 65 120 134 151 155 157 174 246 303 348 364 380 351 335 276 228 225 252 264 246 241 238 237 212
324 346 381 479 466 460 415 381 219 408 400 332 248 146 79 24 7 8 111 158 179 136 84 39 15 61 85 123 153 170 213 252 295 347 408 439 448 417 367 340 258 244 246 261 253 238 244 230 222
Wind_Speed
38 37 33 28 30 34 37 33 20 20 26 31 33 26 24 27 21 19 26 30 37 35 33 32 31 31 30 30 30 29 28 27 27 26 28 28 31 33 32 32 33 33 34 34 34 34 34 35 36
38 36 30 29 27 31 38 37 38 33 31 31 33 32 34 24 24 25 27 28 31 29 28 29 28 28 27 28 28 27 26 26 26 24 22 24 26 28 28 29 30 31 32 32 33 32 32 31 31
40 33 30 27 26 22 32 38 34 27 23 25 31 37 32 26 21 21 20 25 23 22 23 25 24 24 25 25 26 25 25 25 23 23 21 21 22 23 25 26 27 28 29 29 30 30 30 30 29
37 33 32 29 22 23 29 14 11 18 27 35 26 34 33 33 19 17 26 25 21 19 19 19 21 21 22 23 23 22 22 22 22 21 21 19 19 21 22 23 24 25 26 27 27 28 28 29 29
34 32 33 34 34 35 49 58 15 17 30 26 23 26 26 25 22 25 22 20 19 17 16 16 18 18 19 20 20 20 19 20 20 20 19 18 18 19 20 21 22 23 23 24 26 26 27 27 28
34 34 35 34 38 48 51 53 31 37 28 23 28 28 25 18 18 18 18 15 14 15 15 13 13 15 15 16 18 18 18 19 19 18 17 16 16 17 18 19 19 20 20 21 23 24 26 27 27
33 35 35 44 46 38 47 53 50 49 46 42 21 30 24 12 14 16 15 15 13 14 12 12 11 11 12 13 15 16 16 16 16 15 14 14 14 14 15 15 16 17 18 19 20 21 24 26 28
35 36 40 39 42 42 51 53 49 53 47 35 29 30 24 7 14 15 14 14 12 9 8 8 8 8 8 10 11 12 13 13 12 12 12 12 12 12 13 14 14 15 17 19 21 23 24 27 31
35 41 43 43 40 50 56 59 53 54 51 41 40 24 20 12 12 11 8 8 7 5 3 4 6 6 6 6 7 9 10 10 10 9 10 12 13 13 18 17 13 14 15 18 23 28 31 34 37
39 46 48 41 48 64 62 61 64 57 63 46 44 40 8 6 7 4 3 3 2 2 2 3 4 3 3 2 4 5 7 7 8 9 11 14 18 16 20 23 24 22 21 22 26 30 35 38 38
46 55 58 67 63 59 69 66 54 58 54 49 52 31 7 6 9 10 10 9 6 4 3 4 4 4 2 2 1 4 5 6 8 10 12 15 19 21 24 26 27 26 24 24 29 31 32 36 40
62 58 62 61 63 67 71 65 66 59 55 46 42 21 14 17 17 16 15 12 8 8 6 6 6 4 3 5 4 2 4 6 9 12 14 17 20 23 25 26 29 28 28 28 29 29 30 31 35
59 62 72 74 70 70 67 70 70 66 57 52 41 27 24 24 24 22 20 15 10 9 9 9 8 7 7 5 5 4 4 6 12 16 20 21 24 28 27 28 28 27 26 26 26 28 29 29 30
64 75 79 72 77 73 79 79 69 73 69 65 53 37 29 29 29 29 25 20 17 14 14 12 12 11 9 11 9 7 6 9 13 20 26 26 27 28 29 27 26 26 25 28 29 30 30 31 32
69 83 81 74 66 67 69 81 71 66 56 52 52 44 35 35 32 30 27 25 19 16 13 15 14 13 13 12 12 9 10 13 17 25 30 32 29 30 27 26 26 25 25 26 28 30 30 30 30
74 73 82 61 67 61 58 85 74 71 60 55 50 46 37 30 31 33 30 26 21 15 13 12 16 14 13 15 14 17 17 20 26 31 34 35 34 33 28 25 25 26 26 26 28 29 29 29 29
61 79 78 77 52 62 60 79 70 75 62 53 54 47 36 30 29 30 29 26 21 18 12 10 14 13 12 17 19 22 23 27 30 32 35 36 38 33 26 25 27 26 27 29 27 29 27 28 30
70 71 68 76 68 75 72 75 74 70 64 59 57 50 49 32 27 29 30 27 22 17 12 10 12 14 14 17 20 26 28 30 31 33 35 38 40 35 30 29 30 27 28 29 29 29 28 27 27
58 65 70 66 66 65 73 78 75 69 65 64 65 63 64 48 30 30 27 25 21 18 19 17 12 9 10 15 18 25 29 31 32 33 35 38 40 38 33 31 28 24 25 26 26 26 27 30 26
51 59 66 66 56 63 72 76 64 57 57 54 60 60 64 66 44 28 24 26 28 25 24 19 16 13 16 18 21 24 23 32 31 32 35 40 41 41 36 30 26 23 24 25 26 22 24 27 23
51 53 59 63 59 59 71 73 56 51 51 48 51 53 59 54 53 27 25 28 27 27 21 14 16 18 19 17 18 26 29 31 34 34 37 38 39 40 35 31 26 25 25 24 24 21 21 23 25
49 39 44 58 65 70 54 85 64 59 40 43 45 49 51 53 50 28 17 21 22 19 15 13 13 12 14 16 19 22 27 32 37 34 37 38 37 37 34 32 30 26 26 26 28 27 24 22 19
46 34 41 48 56 58 50 60 61 44 46 40 39 39 43 47 42 27 18 14 16 14 15 12 10 12 14 16 21 26 33 38 37 36 36 38 39 39 38 34 30 27 27 29 26 27 24 24 26
30 37 44 45 45 57 42 36 55 54 33 31 31 36 39 40 36 32 23 13 13 13 14 12 14 19 23 24 28 29 29 33 38 40 41 42 42 39 38 36 34 32 28 27 29 28 25 25 27
33 34 44 50 44 51 44 41 41 31 27 28 28 32 37 39 37 28 22 17 12 15 13 14 21 26 28 29 32 30 30 36 39 37 40 42 43 44 41 36 36 36 35 34 30 28 27 27 26
34 35 38 56 55 54 49 45 38 25 24 27 29 30 31 35 36 34 28 22 17 14 17 24 30 35 36 32 36 41 36 41 40 37 40 39 37 37 36 36 35 36 35 34 33 32 31 29 28
43 45 38 54 53 62 53 46 29 26 31 30 34 38 34 34 34 32 30 29 24 29 28 32 36 38 39 40 42 42 44 45 46 44 42 41 39 35 34 34 36 36 34 32 33 34 33 30 29
43 30 44 50 60 65 58 51 46 34 34 38 40 44 37 32 35 36 38 39 39 40 39 41 46 48 48 49 49 51 53 54 51 46 43 39 36 35 36 36 36 37 36 35 31 27 27 27 28
44 47 48 48 57 67 69 60 35 29 33 40 43 47 44 32 36 43 45 42 40 43 45 46 45 46 48 49 51 54 59 58 52 50 46 43 38 35 35 36 37 38 35 33 30 27 25 26 26
47 51 47 64 69 62 66 63 23 34 36 46 53 52 47 40 40 41 41 42 43 42 45 46 50 52 55 55 58 57 52 53 51 51 48 43 41 37 37 39 38 37 38 36 33 32 30 28 28
Wind_Direction
274 271 258 279 16 26 33 49 107 96 70 124 36 54 56 37 70 68 60 106 116 112 108 106 101 98 99 103 106 102 96 90 81 74 74 67 66 66 62 56 51 47 40 37 35 32 25 25 24
285 290 295 335 13 17 17 39 35 40 71 58 13 21 9 30 33 60 82 104 112 108 103 104 100 96 94 99 102 100 97 96 90 80 67 68 64 59 55 51 47 44 41 38 36 31 24 15 14
302 317 313 348 4 18 19 24 17 44 83 29 13 2 10 11 40 68 78 102 100 94 96 100 93 89 88 92 98 97 96 97 90 86 74 65 62 53 51 48 44 39 39 36 33 29 21 15 5
315 311 311 336 357 1 357 359 197 33 13 356 33 8 10 348 53 60 98 103 97 92 92 92 92 88 87 91 93 91 91 92 92 85 81 72 66 58 55 50 43 36 36 34 26 25 21 8 358
324 320 320 324 329 335 327 295 34 17 357 7 19 17 18 9 32 90 93 103 104 96 91 92 94 92 89 89 91 90 88 89 89 89 84 75 72 66 63 58 50 40 38 30 20 13 11 10 357
318 320 319 321 317 319 328 327 357 353 2 10 2 11 14 34 61 86 86 83 82 95 94 83 81 85 85 86 88 90 89 90 90 87 82 75 72 69 66 63 54 49 46 37 25 17 5 355 356
319 317 316 308 309 329 337 331 336 328 342 343 13 349 3 54 63 87 83 78 77 86 90 88 85 82 84 91 95 94 94 90 90 85 75 70 68 63 63 54 46 37 26 18 13 13 2 353 345
317 314 311 313 312 315 326 331 341 335 335 356 3 345 343 87 81 83 81 75 76 81 82 92 94 92 91 96 96 93 89 81 75 65 67 57 47 47 38 31 26 18 8 357 352 346 345 339 330
314 308 307 310 311 307 319 320 330 330 333 342 345 359 357 112 96 92 82 52 56 37 66 100 115 111 99 80 81 87 86 79 74 50 38 20 10 12 358 360 9 2 356 347 338 330 325 321 316
306 301 304 310 308 305 312 316 315 321 315 332 334 337 69 123 161 170 205 276 286 286 161 143 139 122 100 44 75 69 64 43 26 21 13 2 354 353 347 346 345 347 347 337 328 323 316 312 312
304 297 300 298 303 310 306 311 320 314 314 324 323 325 299 253 229 224 237 236 247 206 197 194 174 159 165 313 15 6 17 29 20 11 5 355 348 345 340 337 337 339 342 338 328 320 315 310 308
298 299 301 305 308 308 305 311 309 311 312 319 324 318 292 277 260 250 259 263 225 214 224 216 205 199 262 290 291 328 357 7 3 353 350 347 343 340 336 332 329 334 337 336 330 324 319 314 312
299 302 299 303 307 306 310 305 306 307 316 315 314 304 282 274 272 275 277 276 261 248 243 231 232 243 277 286 290 296 330 354 347 341 338 338 337 336 335 332 333 334 340 338 332 327 323 318 316
301 300 298 303 303 305 300 300 305 306 306 306 307 295 280 268 264 275 273 259 247 256 252 244 248 269 266 285 287 280 302 332 339 336 334 333 335 337 339 337 341 342 347 338 329 320 317 315 315
303 297 300 303 309 306 308 301 306 311 312 305 302 299 283 266 266 257 250 253 236 248 251 239 241 268 284 284 289 298 308 320 328 327 329 330 333 333 336 337 344 350 356 344 333 325 322 318 318
300 302 299 306 311 312 311 303 311 314 308 306 307 302 291 270 251 247 252 244 238 254 233 242 246 257 271 287 295 301 308 316 320 322 324 324 328 331 334 338 344 350 353 347 334 324 322 320 317
302 297 299 305 315 312 310 307 316 321 322 306 311 309 303 287 264 253 252 243 236 245 251 248 228 238 253 273 288 299 304 309 315 321 321 321 322 326 330 333 338 344 346 340 336 326 323 318 315
297 298 301 304 309 308 307 307 313 317 323 321 315 314 314 303 273 244 239 241 238 234 220 182 210 225 248 268 279 293 299 305 311 316 318 318 319 321 324 326 329 337 337 333 330 326 324 321 318
302 300 301 306 310 309 308 308 313 315 317 315 313 314 309 312 291 251 248 228 227 226 196 192 198 233 250 264 270 280 287 295 303 310 314 314 313 314 318 321 329 336 334 332 330 329 323 320 322
299 301 302 307 311 312 311 309 316 320 319 322 319 319 317 314 304 275 238 220 215 211 196 221 235 255 280 291 297 299 295 298 299 304 309 309 309 310 312 316 322 330 331 332 327 326 322 322 321
300 300 304 306 313 315 313 309 316 323 324 327 327 325 324 318 316 291 243 228 221 214 217 235 260 271 289 300 311 315 314 313 305 302 304 306 307 308 309 311 314 319 321 322 323 320 317 318 318
302 313 314 312 312 309 321 305 309 318 322 330 336 338 338 330 320 319 263 244 243 248 250 266 273 288 304 306 308 304 304 305 307 305 306 306 306 305 306 305 307 309 313 313 313 312 308 309 305
307 322 317 317 316 316 318 314 317 323 318 321 334 343 346 349 349 343 322 284 260 256 264 270 281 295 303 304 305 308 308 308 309 308 306 306 304 302 302 302 301 300 305 307 309 308 306 303 301
315 318 321 323 323 313 317 312 325 324 335 340 352 354 356 355 11 13 6 344 304 290 288 285 290 298 305 307 306 305 308 309 309 309 306 304 301 299 298 298 298 299 299 300 302 305 306 305 304
306 313 314 316 314 312 333 326 320 342 354 359 358 4 1 5 2 359 359 10 346 315 305 300 300 307 307 306 309 308 307 303 305 309 307 304 299 296 294 294 294 295 295 296 297 298 299 301 302
290 293 301 307 308 314 321 317 320 334 354 359 3 357 0 5 5 4 3 356 344 323 311 308 302 308 303 307 309 306 306 303 305 307 308 306 300 297 294 292 291 291 292 293 295 296 298 299 300
288 283 293 299 306 306 308 314 318 325 328 343 346 352 349 354 353 354 350 340 331 320 314 311 313 316 308 307 307 306 304 303 302 303 302 301 301 297 294 291 290 289 288 288 290 292 295 298 300
270 296 289 296 298 298 303 299 303 302 312 324 331 336 341 335 337 336 329 325 324 323 319 314 312 309 309 306 302 302 302 302 302 301 297 295 296 295 293 289 286 286 287 288 289 292 297 299 300
288 280 289 289 289 295 297 299 307 311 323 317 317 327 326 325 324 322 319 322 324 323 323 322 321 315 310 308 307 303 302 305 303 298 294 290 288 286 285 285 283 281 280 280 283 288 291 297 301
291 287 281 282 288 287 289 296 308 324 326 322 315 319 321 318 317 317 315 316 318 320 324 325 323 319 314 310 308 307 308 308 307 302 296 289 284 281 279 280 280 278 276 276 275 281 287 295 299